User: anonymous   Login
Location: Agadir Mansour Mhndou
(31.2424°N, 8.7730°W)
Time: 08:09:19
(UTC+00:00)
Language:

Cosmos 2227 Rocket - Orbit

View from above orbital plane
View from above orbital plane
View from above satellite
View from above satellite

Ground track
Ground track

The orbit data is extracted from the following two-line orbital elements,

1 22285U 92093B   22019.51119743  .00000267  00000-0  16237-3 0  9994
2 22285  71.0220 293.4854 0002087  93.4536 266.6825 14.15070456499498
Epoch (UTC): 19 January 2022 12:16:07
Eccentricity: 0.0002087
inclination: 71.0220°
perigee height: 840 km
apogee height: 843 km
right ascension of ascending node: 293.4854°
argument of perigee: 93.4536°
revolutions per day: 14.15070456
mean anomaly at epoch: 266.6825°
orbit number at epoch: 49949

The dashed part of the orbit path shows where the satellite is in the earth's shadow,  

DLR